PEGASUS

Last updated on Mon Jan 08 2024 00:03:33 GMT+0000 (Coordinated Universal Time)

1 42784U 17036V 24007.07140030 .04956364 23074-5 10798-2 0 9995 2 42784 97.0829 51.7317 0003718 260.1455 99.9421 16.30610635364859
UTC large
Height (km)
Speed (km/s)
/
Latitude / Longitude
Inclination (degrees)
Orbital Period (minutes)
Azimuth
Elevation
Range (km)
Doppler Factor

Next 0 passes for location: London (51.5072 / 0.1276)

Sorry there are no passes over London.